Regional Weather Roundup
Issued by NWS

Home | Current Version | Previous Version | Graphics & Text | Print | Product List | Glossary On
Versions: 1 2 3 4 5 6 7 8 9 10 11 12 13 14 15 16 17 18 19 20 21 22 23 24 25 26 27 28 29 30 31 32 33 34 35 36 37 38 39 40 41 42 43 44 45 46 47 48 49 50
000
ASUS43 KLMK 260402
RWRKY
KENTUCKY REGIONAL WEATHER ROUNDUP
NATIONAL WEATHER SERVICE LOUISVILLE KY
1100 PM EST SUN FEB 25 2018

NOTE "FAIR" INDICATES FEW OR NO CLOUDS BELOW 12,000 FEET
WITH NO SIGNIFICANT WEATHER AND/OR OBSTRUCTIONS TO VISIBILITY.

KYZ001>023-026-027-061>063-070>075-260500-
WESTERN AND SOUTH CENTRAL KENTUCKY

CITY           SKY/WX    TMP DP  RH WIND       PRES   REMARKS
PADUCAH        FAIR      43  35  73 CALM      30.17R
HENDERSON      FAIR      41  36  82 CALM      30.19S
OWENSBORO      FAIR      44  34  67 CALM      30.20R
HOPKINSVILLE   FAIR      46  39  76 N7        30.16R
BOWLING GREEN  FAIR      48  37  65 N3        30.18R
GLASGOW        NOT AVBL
$$

KYZ024-025-028>034-038-045-046-053-260500-
NORTH CENTRAL KENTUCKY

CITY           SKY/WX    TMP DP  RH WIND       PRES   REMARKS
LOUISVILLE/SDF CLOUDY    45  34  65 SW5       30.19R
LOUISVILLE/LOU FAIR      45  35  68 SW3       30.19R
FORT KNOX      FAIR      40  36  85 CALM      30.19R
$$

KYZ035>037-039>044-047>052-055>060-089>105-260500-
NORTHEAST KENTUCKY

CITY           SKY/WX    TMP DP  RH WIND       PRES   REMARKS
LEXINGTON      FAIR      44  38  79 CALM      30.18R
COVINGTON      CLOUDY    42  33  70 W3        30.15R
FRANKFORT      FAIR      42  37  82 SW3       30.17R
$$

KYZ054-064>069-076>088-106>120-260500-
SOUTHEAST KENTUCKY

CITY           SKY/WX    TMP DP  RH WIND       PRES   REMARKS
JACKSON        FAIR      46  37  71 W5        30.16R
LONDON         FAIR      47  41  80 CALM      30.16R
SOMERSET       NOT AVBL
MIDDLESBORO    FAIR      50  49  99 NW3       30.16F
MONTICELLO     MOCLDY    47  42  83 W7        30.19R
$$





USA.gov is the U.S. government's official web portal to all federal, state and local government web resources and services.